[[{"header":{"parameterUnit":"m.s-1","parameterCategory":1,"la1":30.2991,"la2":30.254,"lo1":-89.0895,"lo2":-89.0444,"dy":0.0017,"dx":0.0017,"nx":28,"ny":28,"refTime":"2025-09-17T09:00:00:Z","depth":0,"parameterNumber":2,"parameterNumberName":"U-component_of_WINDS"},"data":[0,0,0,0,0,0,0,0,0,0,0,0,0,0,0,0,0,0,0,0,0,0,0,0,0,0,0,0,0,0,0,0,0,0,0,0,0,0,0,0,0,0,0,0,0,0,0,0,0,0,0,0,0,0,0,0,0,0,0.4607,0.4607,0,0.4623,0.4623,0.4623,0.4657,0.4658,0.4658,0.4659,0.4673,0.4673,0.4673,0,0,0,0,0,0,0,0,0,0,0,0,0,0.4606,0.4606,0.4607,0.4607,0.4608,0.4623,0.4623,0.4623,0.4657,0.4658,0.4659,0.4659,0.4673,0.4673,0.4673,0,0,0,0,0,0,0,0,0,0,0,0,0,0.4612,0.4606,0.4607,0.4626,0.4628,0.4622,0.4623,0.4623,0.4657,0.4658,0.4659,0.466,0.4674,0.4673,0.4673,0.4649,0,0,0.4671,0.4671,0,0,0,0,0,0,0,0,0.4612,0.4612,0.4623,0.4625,0.4627,0.4639,0.4628,0.4632,0.4656,0.4646,0.4659,0.466,0.4661,0.4662,0.4662,0.465,0.465,0.4671,0.4671,0.4671,0.4671,0,0,0,0,0,0,0,0.4611,0.4612,0.4613,0.4623,0.4626,0.4634,0.4636,0.4628,0.4647,0.4647,0.4649,0.4651,0.4662,0.4662,0.4663,0.4651,0.4671,0.4671,0.4671,0.4671,0.4619,0.4618,0,0,0,0,0,0,0.4608,0.4611,0.4613,0.4614,0.4622,0.4633,0.4635,0.4634,0.4647,0.4651,0.465,0.4652,0.4663,0.4663,0.4663,0.4636,0.4671,0.4671,0.467,0.462,0.4618,0.4617,0,0,0,0,0,0,0.4608,0.4608,0.4612,0.4613,0.4614,0.4632,0.463,0.4634,0.4634,0.465,0.4653,0.4647,0.4664,0.4664,0.4652,0.4637,0.467,0.467,0.4621,0.4619,0.4618,0.458,0,0,0,0,0,0,0.4608,0.4608,0.4599,0.4613,0.4614,0.4601,0.4629,0.4633,0.4634,0.4637,0.4648,0.4651,0.4664,0.4653,0.4652,0.4637,0.467,0.4623,0.462,0.4618,0.4583,0.4578,0.4573,0,0,0,0,0,0.4608,0.4588,0.4599,0.4599,0.4604,0.46,0.4601,0.4618,0.4632,0.4623,0.4633,0.465,0.4639,0.4651,0.4651,0.4635,0.4624,0.4621,0.4618,0.4585,0.4579,0.4573,0,0,0,0,0,0,0.4572,0.459,0.4602,0.4586,0.4591,0.4606,0.4595,0.461,0.4611,0.4614,0.4634,0.4636,0.4622,0.4628,0.4641,0.4612,0.4634,0.4631,0.4609,0.4603,0.4598,0.4596,0.4669,0,0,0,0,0,0.4562,0.4558,0.4574,0.4558,0.4561,0.4577,0.4576,0.4589,0.4595,0.4597,0.4606,0.4611,0.4608,0.4606,0.4605,0.4585,0.4587,0.4574,0.4569,0.4564,0.4561,0.455,0.4544,0.4609,0.4609,0.4609,0,0,0.4542,0.4551,0.4547,0.4551,0.4557,0.4551,0.4579,0.4572,0.4568,0.4596,0.4585,0.4592,0.4599,0.4582,0.4576,0.4587,0.4544,0.4561,0.4558,0.4557,0.4547,0.454,0.4535,0.4607,0.4607,0.4608,0,0,0.4502,0.4509,0.4496,0.4501,0.4509,0.4521,0.4518,0.453,0.4536,0.4526,0.4546,0.4542,0.4537,0.4541,0.4542,0.4503,0.4518,0.4502,0.4475,0.4464,0.4459,0.4454,0.4439,0.4434,0.45,0.4499,0.4499,0,0.4475,0.4468,0.4488,0.448,0.448,0.4506,0.4493,0.4497,0.4504,0.4503,0.4516,0.4511,0.4517,0.4501,0.4492,0.4492,0.4489,0.45,0.4458,0.4454,0.445,0.4436,0.443,0.4497,0.4498,0.4498,0.4498,0,0.4434,0.4429,0.4418,0.4424,0.4424,0.4414,0.4431,0.4428,0.4441,0.4451,0.444,0.4449,0.4449,0.4447,0.4459,0.4433,0.4439,0.4455,0.4476,0.4441,0.4428,0.4423,0.4494,0.4495,0.4496,0.4496,0,0,0.4371,0.4389,0.4384,0.4387,0.4398,0.4394,0.4385,0.4385,0.4382,0.4386,0.4378,0.4374,0.4388,0.439,0.4403,0.4393,0.436,0.441,0.441,0.4399,0.433,0.4317,0.4311,0.4371,0.437,0.437,0.4329,0,0.4332,0.4317,0.4334,0.4315,0.431,0.4335,0.4326,0.4332,0.4341,0.4337,0.4348,0.4344,0.4364,0.4365,0.4356,0.4366,0.4347,0.437,0.4362,0.4362,0.4358,0.4304,0.4291,0.4252,0.4325,0.4324,0.4323,0,0.4284,0.4286,0.4267,0.4279,0.4277,0.4269,0.4271,0.4268,0.4275,0.4282,0.4284,0.43,0.429,0.4313,0.43,0.4315,0.4313,0.4318,0.4317,0.4315,0.4339,0.43,0.424,0.4234,0.4316,0.4316,0.4317,0,0.4238,0.4236,0.4224,0.4226,0.424,0.4233,0.4239,0.4247,0.4246,0.4248,0.4247,0.4248,0.4248,0.4248,0.4263,0.4278,0.4247,0.4271,0.4252,0.4252,0.4243,0.4243,0.4181,0.4245,0.4245,0.4245,0.4245,0,0.4191,0.4178,0.4203,0.4195,0.4181,0.4201,0.4186,0.4194,0.4201,0.4195,0.4217,0.421,0.4232,0.4227,0.4239,0.4226,0.4226,0.4231,0.4234,0.4228,0.4227,0.4226,0.4228,0.4244,0.4244,0.4244,0.4244,0,0.4136,0.4153,0.4141,0.4155,0.4159,0.4147,0.4159,0.4153,0.4164,0.4155,0.4155,0.4172,0.4168,0.4183,0.4182,0.419,0.417,0.4178,0.4167,0.4169,0.4149,0.415,0.4082,0.4074,0.4144,0.4144,0.4143,0,0.4105,0.4095,0.4109,0.4107,0.4111,0.4107,0.4106,0.4126,0.4125,0.4132,0.4124,0.4122,0.4121,0.4113,0.4125,0.4124,0.4132,0.4108,0.4131,0.4125,0.4129,0.4129,0.4128,0.4102,0.4102,0.4101,0.41,0,0.4047,0.4055,0.4054,0.4056,0.4054,0.4056,0.406,0.4057,0.4078,0.4075,0.4072,0.4071,0.407,0.4067,0.4069,0.4074,0.409,0.4093,0.4088,0.4081,0.4075,0.4076,0.4152,0.4094,0.4095,0.4095,0.4096,0.4096,0.4002,0.3994,0.4002,0.4,0.4005,0.4007,0.4001,0.4012,0.4009,0.401,0.4022,0.4016,0.4023,0.4027,0.403,0.4025,0.4036,0.403,0.4028,0.4025,0.4021,0.4077,0.4026,0.4026,0.4026,0.4026,0.4026,0,0.3943,0.395,0.3948,0.3952,0.395,0.3967,0.3972,0.3968,0.3963,0.3968,0.3967,0.3963,0.396,0.3972,0.3971,0.3965,0.3972,0.3964,0.3964,0.3964,0.4012,0.4015,0.3958,0.3958,0.3958,0.3958,0.3958,0.3958,0.3912,0.39,0.3909,0.3899,0.3906,0.3901,0.3902,0.3904,0.3908,0.3903,0.3901,0.3909,0.3917,0.3916,0.3915,0.3918,0.3916,0.3905,0.391,0.3954,0.3961,0.3967,0.3971,0.3904,0.3904,0.3863,0.3862,0.3862]},{"header":{"parameterUnit":"m.s-1","parameterCategory":1,"la1":30.2991,"la2":30.254,"lo1":-89.0895,"lo2":-89.0444,"dy":0.0017,"dx":0.0017,"nx":28,"ny":28,"refTime":"2025-09-17T09:00:00:Z","depth":0,"parameterNumber":3,"parameterNumberName":"V-component_of_WINDS"},"data":[0,0,0,0,0,0,0,0,0,0,0,0,0,0,0,0,0,0,0,0,0,0,0,0,0,0,0,0,0,0,0,0,0,0,0,0,0,0,0,0,0,0,0,0,0,0,0,0,0,0,0,0,0,0,0,0,0,0,0.3202,0.3202,0,0.321,0.321,0.321,0.3175,0.3174,0.3173,0.3172,0.3181,0.3182,0.3184,0,0,0,0,0,0,0,0,0,0,0,0,0,0.3157,0.3158,0.3202,0.3202,0.3202,0.321,0.321,0.321,0.3175,0.3174,0.3173,0.3172,0.3181,0.3182,0.3184,0,0,0,0,0,0,0,0,0,0,0,0,0,0.3172,0.3158,0.3202,0.3186,0.3184,0.321,0.321,0.321,0.3176,0.3174,0.3173,0.3171,0.318,0.3182,0.3184,0.3226,0,0,0.3189,0.319,0,0,0,0,0,0,0,0,0.3171,0.3173,0.3188,0.3187,0.3185,0.319,0.3197,0.3215,0.3176,0.3179,0.3172,0.317,0.3185,0.3187,0.3192,0.3226,0.3226,0.319,0.3191,0.3191,0.3192,0,0,0,0,0,0,0,0.317,0.3173,0.3205,0.3188,0.3187,0.3178,0.3178,0.32,0.3191,0.3179,0.3176,0.3177,0.3184,0.319,0.3192,0.3226,0.3189,0.3191,0.3192,0.3193,0.3293,0.3295,0,0,0,0,0,0,0.3171,0.3172,0.3205,0.3205,0.3174,0.318,0.3181,0.319,0.319,0.3189,0.3179,0.3176,0.3188,0.319,0.3192,0.3239,0.3191,0.3193,0.3194,0.3292,0.3294,0.3295,0,0,0,0,0,0,0.317,0.3174,0.3204,0.3188,0.3191,0.3182,0.3193,0.3191,0.3196,0.319,0.3189,0.3186,0.3187,0.3189,0.3217,0.3239,0.3194,0.3195,0.329,0.3292,0.3295,0.3335,0,0,0,0,0,0,0.3169,0.3174,0.319,0.3189,0.3192,0.323,0.3195,0.3192,0.32,0.3196,0.3197,0.3196,0.3186,0.3214,0.3219,0.3241,0.3197,0.3288,0.3291,0.3294,0.3332,0.3339,0.3345,0,0,0,0,0,0.3167,0.3202,0.3191,0.3195,0.3212,0.3231,0.3233,0.3221,0.3202,0.3217,0.3213,0.3196,0.3236,0.3218,0.3222,0.3245,0.3286,0.329,0.3294,0.3329,0.3337,0.3345,0,0,0,0,0,0,0.3207,0.3201,0.3189,0.3224,0.3228,0.3225,0.3245,0.323,0.324,0.3236,0.322,0.3221,0.3251,0.3251,0.323,0.3284,0.3258,0.3263,0.3283,0.3291,0.3297,0.3297,0.3198,0,0,0,0,0,0.3219,0.3235,0.323,0.3261,0.3264,0.3254,0.3262,0.3252,0.3255,0.3257,0.3255,0.3259,0.3273,0.3282,0.3294,0.3332,0.3331,0.335,0.3356,0.3361,0.3365,0.3384,0.3392,0.3307,0.3307,0.3307,0,0,0.3246,0.3245,0.3256,0.3269,0.3271,0.3287,0.3256,0.3275,0.3287,0.326,0.3285,0.3284,0.3288,0.332,0.3334,0.3321,0.3388,0.3366,0.337,0.3371,0.3388,0.3396,0.3403,0.331,0.3309,0.3309,0,0,0.3303,0.3304,0.3329,0.3331,0.3334,0.3327,0.3333,0.3332,0.333,0.3355,0.3335,0.3349,0.3373,0.3376,0.338,0.3436,0.342,0.3441,0.3474,0.3492,0.3499,0.3504,0.3523,0.353,0.3445,0.3445,0.3445,0,0.3336,0.3359,0.3344,0.3364,0.337,0.3346,0.3371,0.3374,0.3381,0.3385,0.337,0.3398,0.3399,0.3431,0.3445,0.345,0.3455,0.344,0.3499,0.3504,0.351,0.3527,0.3535,0.3447,0.3447,0.3447,0.3447,0,0.3399,0.3416,0.3436,0.3442,0.345,0.3473,0.3461,0.3471,0.3459,0.3454,0.3479,0.3479,0.349,0.3497,0.3487,0.3527,0.3519,0.3501,0.3474,0.352,0.3537,0.3543,0.3451,0.345,0.3449,0.3449,0,0,0.3482,0.3478,0.3485,0.3487,0.3488,0.35,0.3521,0.3531,0.354,0.3545,0.3562,0.3582,0.3565,0.357,0.356,0.3576,0.3619,0.3557,0.3556,0.3567,0.3662,0.3674,0.3683,0.3608,0.3609,0.361,0.3661,0,0.3536,0.3571,0.3558,0.3594,0.3608,0.3585,0.3603,0.3605,0.36,0.3611,0.3606,0.362,0.3598,0.3601,0.3615,0.361,0.3637,0.3607,0.3623,0.3624,0.3622,0.3691,0.3705,0.3753,0.3668,0.3669,0.367,0,0.3605,0.3611,0.3649,0.3645,0.3651,0.3667,0.3674,0.3686,0.3688,0.3683,0.3688,0.3673,0.3693,0.3666,0.3693,0.3672,0.3678,0.3677,0.3678,0.3679,0.3649,0.3693,0.3768,0.3775,0.368,0.3679,0.3678,0,0.366,0.3678,0.3703,0.3705,0.3702,0.3714,0.3713,0.3713,0.3719,0.3725,0.3729,0.3738,0.3743,0.375,0.3738,0.372,0.3766,0.3739,0.3762,0.3763,0.3773,0.3773,0.385,0.3778,0.3778,0.3778,0.3778,0,0.3722,0.3746,0.3727,0.3742,0.3767,0.3751,0.3777,0.3773,0.3773,0.3787,0.3767,0.378,0.3764,0.3776,0.3767,0.3789,0.3792,0.3788,0.3786,0.379,0.379,0.3793,0.3789,0.378,0.3779,0.3779,0.3779,0,0.3788,0.3777,0.3801,0.3795,0.3794,0.3813,0.3808,0.3821,0.3814,0.3832,0.3835,0.3824,0.3837,0.3826,0.3838,0.3832,0.3862,0.3855,0.3861,0.3859,0.3883,0.388,0.3964,0.3974,0.3897,0.3897,0.3898,0,0.3828,0.3845,0.3841,0.3848,0.3848,0.386,0.3866,0.385,0.3857,0.3859,0.3872,0.3883,0.389,0.3911,0.3905,0.3914,0.3906,0.3935,0.3907,0.391,0.3905,0.3904,0.3905,0.394,0.3941,0.3942,0.3942,0,0.39,0.3893,0.3902,0.3908,0.3916,0.392,0.3924,0.3931,0.3914,0.3923,0.3935,0.3941,0.3952,0.3963,0.397,0.3969,0.3953,0.3951,0.3957,0.3961,0.3964,0.3962,0.3875,0.3949,0.3949,0.3948,0.3948,0.3947,0.3953,0.3967,0.3965,0.3975,0.3976,0.3979,0.3991,0.3984,0.3994,0.4002,0.3992,0.4006,0.4006,0.4013,0.4014,0.4025,0.4013,0.4021,0.4023,0.4026,0.4029,0.3962,0.4026,0.4026,0.4026,0.4025,0.4025,0,0.4023,0.4021,0.403,0.4034,0.4042,0.4026,0.4028,0.4035,0.4048,0.4049,0.4056,0.4069,0.4079,0.4073,0.4081,0.4091,0.4083,0.4093,0.4092,0.4092,0.4039,0.4033,0.4099,0.4099,0.4099,0.4099,0.4099,0.4099,0.4061,0.4082,0.4075,0.4096,0.4093,0.4106,0.4109,0.4111,0.4112,0.4127,0.4134,0.413,0.4128,0.4135,0.4143,0.4141,0.4144,0.4157,0.4152,0.4103,0.4096,0.4089,0.4083,0.4158,0.4158,0.4203,0.4204,0.4204]}]]